Regional Weather Roundup
Issued by NWS

Home | Current Version | Previous Version | Text Only | Print | Product List | Glossary On
Versions: 1 2 3 4 5 6 7 8 9 10 11 12 13 14 15 16 17 18 19 20 21 22 23 24 25 26 27 28 29 30 31 32 33 34 35 36 37 38 39 40 41 42 43 44 45 46 47 48 49 50
000
ASUS46 KSTO 232015
RWRCA

NORTHERN AND CENTRAL CA REGIONAL WEATHER ROUNDUP
NATIONAL WEATHER SERVICE SACRAMENTO CA
100 PM PDT THU MAR 23 2017

NOTE: FAIR INDICATES FEW OR NO CLOUDS BELOW 12,000 FEET WITH NO
SIGNIFICANT WEATHER AND/OR OBSTRUCTIONS TO VISIBILITY.

CAZ001-003-232100-
NORTHWEST AREA

CITY           SKY/WX    TMP DP  RH WIND       PRES   REMARKS
CRESCENT CITY  CLOUDY    52  42  69 S23       30.11F
UKIAH          PTSUNNY   58  40  51 VRB7      30.18F
$$

CAZ006-505>513-232100-
BAY AREA

CITY           SKY/WX    TMP DP  RH WIND       PRES   REMARKS
SANTA ROSA     MOSUNNY   58  43  57 S5        30.20F
SAN RAFAEL     N/A       59  MM  MM MISG
NAPA           MOSUNNY   60  46  59 VRB6      30.22F
CONCORD        SUNNY     61  43  51 W7        30.21F
OAKLAND CITY   N/A      MM  MM  MM MISG
OAKLAND        MOSUNNY   59  45  59 W8        30.24F
SAN FRAN CITY  N/A       56  MM  57 MISG
SAN FRAN ARPT  PTSUNNY   59  43  55 W12       30.24S
LIVERMORE      MOSUNNY   60  43  53 SW6       30.21F
HAYWARD        SUNNY     59  41  51 NW7       30.24S
REDWOOD CITY   N/A       60  MM  56 MISG
MOFFETT ARPT   MOSUNNY   60  46  59 N6        30.24F
SAN JOSE ARPT  MOSUNNY   61  44  53 CALM      30.23F
$$
CAZ034-037-514>518-232100-
CENTRAL COAST

CITY           SKY/WX    TMP DP  RH WIND       PRES   REMARKS
WATSONVILLE    MOSUNNY   59  49  69 S8        30.25F
SALINAS        MOSUNNY   58  43  57 W7        30.25S
MONTEREY       SUNNY     57  43  59 VRB7      30.26S
SAN LUIS OBISP SUNNY     65  44  46 N10G17    30.21F
SANTA MARIA    MOSUNNY   61  47  59 W14       30.22F
$$
CAZ015-016-232100-
NORTHERN SACRAMENTO VALLEY

CITY           SKY/WX    TMP DP  RH WIND       PRES   REMARKS
REDDING        SUNNY     57  43  59 SW3       30.17S
RED BLUFF      MOSUNNY   56  46  69 SE5       30.19S
OROVILLE       SUNNY     59  46  62 S9        30.21F
$$
CAZ016>018-232100-
SOUTHERN SACRAMENTO VALLEY

CITY           SKY/WX    TMP DP  RH WIND       PRES   REMARKS
AUBURN         MOSUNNY   55  45  67 W7        30.20S
BEALE AFB      MOSUNNY   58  48  68 S7        30.19F
LINCOLN        FAIR      57  46  67 SW6       30.21S
MARYSVILLE     MOSUNNY   58  48  69 VRB6      30.21F
SAC INTL ARPT  PTSUNNY   57  50  77 SW8       30.21S
MATHER AIRPORT MOSUNNY   55  48  76 S3        30.22F
DOWNTOWN SAC   N/A       61  MM  MM MISG
SAC EXEC ARPT  SUNNY     58  48  69 SW7       30.22F
VACAVILLE      SUNNY     61  44  53 VRB5      30.22S
TRAVIS AFB     SUNNY     59  45  60 SW13      30.20S
$$
CAZ019>021-232100-
SAN JOAQUIN VALLEY

CITY           SKY/WX    TMP DP  RH WIND       PRES   REMARKS
STOCKTON       MOSUNNY   59  48  67 W5        30.22S
MODESTO        MOSUNNY   61  45  55 CALM      30.22S
MERCED         MOSUNNY   60  47  61 NW6       30.23S
LEMOORE        PTSUNNY   60  41  49 NW7       30.25S
FRESNO         PTSUNNY   59  44  57 W3        30.23F
HANFORD        CLOUDY    58  45  62 CALM      30.25F
PORTERVILLE    SUNNY     56  45  66 CALM      30.25F
BAKERSFIELD    CLOUDY    56  42  59 CALM      30.25S
$$
CAZ011-012-071-232100-
NORTHERN MOUNTAINS

CITY           SKY/WX    TMP DP  RH WIND       PRES   REMARKS
YREKA          MOSUNNY   51  38  60 CALM      30.08F
MOUNT SHASTA   SUNNY     50  32  50 VRB5      30.10S
ALTURAS        PTSUNNY   46  33  60 VRB6      30.10F
$$
CAZ011-012-071-232100-
SIERRA NEVADA MTNS

CITY           SKY/WX    TMP DP  RH WIND       PRES   REMARKS
BLUE CANYON    PTSUNNY   41  30  65 S8        30.17S
TRUCKEE        MOSUNNY   43  25  49 NW10      30.13S
TAHOE VLY ARPT SUNNY     42  21  43 S8        30.12S
MAMMOTH LAKES  FAIR      42  18  38 E6        30.12S
$$



USA.gov is the U.S. government's official web portal to all federal, state and local government web resources and services.